Theta_e
312 312 311 311 310 308 306 306 307 308 307 307 306 306 306 307 307 308 308 308 308 308 309 309 310 311 312 312 312 314 314 313 316 319 323 323 319 317 316 314 315 313 313 315 315 315 314 315 314 314 316 317 321 324 324 322 329 341 339 329 321 319 317 316 320 324 323 320 318 317 318 319 317 318 317 315 317 315 315 315 314 313 313 313 313 315 317 318
312 311 310 310 310 309 306 305 307 308 308 308 308 307 306 307 307 309 310 311 310 309 309 310 311 312 313 313 313 314 313 314 321 322 318 317 316 316 316 314 314 313 315 316 314 314 314 315 314 314 317 318 321 323 323 325 327 331 333 328 321 318 316 316 319 320 320 319 318 318 318 318 317 317 316 316 316 316 317 315 313 314 314 313 314 315 317 317
312 310 309 309 310 310 309 307 307 308 309 308 308 308 307 307 308 309 310 311 311 310 311 312 313 314 314 313 314 314 314 319 325 321 315 314 315 315 315 313 313 313 315 315 314 314 314 315 313 314 317 318 320 322 323 326 324 325 331 327 318 318 316 315 320 318 318 319 319 318 317 317 316 316 315 315 317 318 318 317 315 316 314 314 314 314 316 316
311 310 310 310 310 310 311 311 309 307 308 308 309 309 309 309 308 309 310 312 312 311 312 313 314 315 314 314 314 314 318 323 323 318 313 314 314 314 313 313 313 314 315 315 315 315 315 315 314 316 318 319 320 321 321 322 322 323 328 326 317 318 317 316 320 319 319 319 319 318 316 316 315 316 317 316 317 319 318 316 317 316 314 315 314 313 314 314
311 311 311 311 310 311 310 310 310 309 307 308 308 309 310 310 310 310 311 312 312 313 313 314 314 315 314 315 315 315 319 322 319 316 314 314 314 314 314 314 314 315 315 315 316 316 316 315 315 319 318 318 322 321 318 318 320 320 321 322 319 319 319 317 319 320 319 318 319 318 316 316 316 316 318 317 318 320 318 315 316 315 313 315 314 313 313 313
311 311 311 311 311 311 311 309 309 309 308 307 308 309 310 311 312 311 311 312 313 314 314 315 314 314 314 315 315 317 320 320 317 315 314 314 314 315 314 314 314 315 316 316 316 316 317 317 316 319 319 318 321 321 318 317 320 320 318 319 320 320 319 317 319 320 318 318 319 318 316 316 317 317 317 319 319 318 316 314 314 313 312 313 312 312 313 312
310 310 311 311 311 311 311 310 309 308 307 307 309 309 309 310 311 312 312 312 313 315 315 315 314 315 316 315 320 324 322 321 318 315 314 314 314 314 314 313 314 315 316 316 316 317 318 320 318 317 320 320 319 318 317 317 319 320 318 318 319 319 319 319 320 319 319 318 318 317 316 316 317 316 318 321 317 314 313 310 310 311 311 311 312 312 311 312
310 310 311 310 310 310 309 309 308 309 308 307 309 308 309 309 310 311 312 313 314 315 315 315 315 316 316 316 323 329 326 323 318 315 314 313 313 314 313 313 314 316 317 316 316 317 318 320 318 317 319 318 317 317 317 318 320 319 318 318 320 319 319 321 321 320 319 319 317 316 316 318 318 315 317 319 313 312 312 309 309 310 310 311 312 312 310 310
311 311 311 309 309 307 307 309 308 310 309 307 308 308 308 309 309 311 313 314 315 315 314 315 316 316 318 319 323 326 324 321 316 315 315 313 313 313 314 315 315 315 316 316 316 316 318 319 318 317 318 317 317 317 317 319 319 318 318 317 318 317 318 320 320 320 319 318 317 316 317 319 318 315 316 316 312 312 312 311 312 311 312 313 312 310 308 309
312 311 310 309 309 308 310 311 310 310 311 308 308 308 308 308 310 312 314 315 314 314 314 315 316 316 319 322 326 325 321 319 315 315 315 314 314 312 314 316 316 316 316 317 317 317 318 317 317 316 316 317 316 316 316 318 317 316 318 317 318 318 318 318 319 320 319 318 317 317 317 318 316 314 316 314 311 312 312 313 313 313 313 312 312 310 308 309
312 312 311 311 311 311 311 311 311 311 311 310 309 308 309 309 311 313 315 314 313 314 315 316 316 316 318 321 326 325 321 319 316 316 316 315 315 314 315 316 316 317 317 318 317 316 317 316 315 315 316 316 315 316 316 316 316 316 317 317 319 319 318 317 317 318 317 316 317 317 316 316 314 314 317 314 311 312 313 313 313 314 313 312 313 310 308 308
312 313 313 313 312 312 311 311 312 311 311 310 310 309 310 310 312 314 314 313 314 315 316 317 317 317 319 322 325 323 321 320 318 317 317 316 315 315 316 315 316 317 317 318 317 316 316 315 315 316 317 316 317 317 315 315 315 316 316 318 321 320 318 318 316 317 317 316 317 316 316 317 315 315 317 313 311 312 312 313 313 313 313 313 313 311 308 307
312 312 313 313 313 312 312 312 312 312 311 311 310 310 310 311 313 314 314 314 314 316 316 317 317 316 319 323 323 320 321 322 319 318 317 316 316 316 316 315 316 317 317 318 318 317 314 314 316 317 317 317 318 315 315 315 315 317 316 316 321 322 323 321 316 317 318 316 317 315 317 324 321 315 314 311 311 313 312 313 313 313 313 312 312 312 310 307
312 312 312 313 313 312 313 314 314 313 312 312 312 310 310 312 313 314 314 314 316 317 317 316 317 319 321 322 320 319 321 321 319 319 317 317 316 316 316 316 316 316 316 317 317 316 313 314 315 316 316 317 317 314 316 316 316 318 317 320 322 320 328 327 315 317 317 314 316 316 318 326 323 315 312 312 312 313 313 314 313 314 313 312 312 312 310 307
312 312 311 311 312 313 314 315 315 313 313 314 313 311 312 314 314 314 315 316 318 317 316 316 316 320 323 321 318 318 319 319 319 318 317 317 317 317 316 316 316 316 315 316 315 314 313 314 316 318 316 315 316 317 321 322 320 318 318 329 328 319 330 330 314 317 318 313 314 316 319 322 320 315 312 312 313 313 314 313 313 313 312 312 312 311 310 307
312 312 312 311 312 314 315 315 314 313 314 314 313 313 313 315 316 315 316 317 318 316 318 320 318 318 321 321 318 317 317 317 318 317 317 318 318 318 316 315 315 314 314 314 314 313 314 316 317 318 316 316 319 324 329 329 328 325 320 328 329 321 326 325 316 317 318 315 313 315 321 322 320 315 312 312 313 314 314 313 313 313 312 312 310 309 309 307
312 312 312 311 313 314 314 315 315 314 315 314 313 314 315 317 318 317 317 317 317 317 319 322 318 316 318 317 317 320 319 317 318 318 317 318 318 317 316 315 314 314 314 314 314 314 315 316 316 317 318 318 321 328 331 326 329 331 321 321 325 322 322 321 321 318 316 317 315 314 317 319 320 316 312 313 313 313 314 314 313 312 312 312 310 308 308 307
312 313 312 311 313 315 314 315 316 316 315 313 313 316 317 317 318 318 318 317 317 316 317 319 317 316 317 316 317 320 319 318 319 318 317 318 318 316 316 315 314 314 315 316 316 315 316 319 320 321 320 319 320 325 327 324 329 332 326 323 324 323 322 322 322 319 316 316 316 316 315 315 318 316 313 312 312 313 314 313 313 312 312 311 310 309 308 307
313 313 313 312 313 315 315 316 317 316 314 313 315 317 317 316 318 320 319 318 321 319 317 320 319 317 318 319 318 319 319 319 319 318 317 317 317 316 316 315 315 316 317 319 318 317 319 322 324 323 322 321 319 321 323 325 328 330 329 330 328 325 325 323 322 319 316 316 317 317 316 315 316 318 316 312 312 313 312 313 313 312 312 311 311 310 309 307
313 313 313 312 314 315 316 317 317 316 314 314 317 318 319 322 323 322 322 321 324 322 319 321 320 318 319 319 319 318 318 318 318 318 317 317 317 316 316 315 317 317 319 324 323 319 320 324 325 325 323 321 319 319 320 321 323 323 323 326 327 325 324 324 321 319 316 317 319 318 317 317 317 319 318 313 312 312 312 314 314 313 312 311 311 310 309 307
314 313 312 312 313 315 316 316 316 315 314 315 318 320 324 328 324 323 326 326 322 319 320 320 316 317 318 318 317 316 318 317 317 317 316 316 316 316 318 318 319 320 322 326 324 319 319 322 324 324 321 319 319 320 318 319 320 320 321 322 324 325 324 323 320 318 317 318 322 322 318 318 319 320 317 313 312 312 312 313 314 312 312 311 311 311 309 306
314 312 312 313 313 315 317 316 315 315 314 314 317 319 323 323 319 319 323 326 323 319 320 319 317 317 317 317 316 316 319 320 318 318 316 315 316 318 319 319 321 323 322 322 322 321 321 322 321 319 319 319 321 321 319 319 319 320 322 321 323 327 325 324 322 318 317 319 326 328 321 320 321 319 318 315 313 313 311 311 313 313 312 311 311 310 308 306
315 313 312 313 313 315 316 316 316 315 314 314 316 318 320 319 318 317 318 322 325 323 323 322 320 319 318 317 316 316 320 322 323 321 317 315 317 319 319 319 321 322 322 322 323 324 325 327 322 317 319 321 321 322 321 321 320 323 324 321 324 327 324 325 325 319 317 319 324 326 322 319 319 319 320 317 313 313 313 312 313 313 312 311 310 309 308 306
315 313 312 313 314 315 315 315 316 316 314 314 315 317 319 319 317 318 320 322 322 322 323 322 321 320 319 318 316 317 320 320 323 322 317 315 317 319 319 319 320 321 321 321 322 323 325 327 324 319 320 321 321 322 322 322 322 326 327 324 326 328 325 325 324 320 321 323 321 320 322 324 322 320 321 318 314 314 315 315 316 314 312 311 310 309 307 307
315 313 312 313 315 315 314 316 316 315 314 314 314 316 319 320 319 318 322 325 325 324 322 320 320 321 319 317 317 318 319 319 321 321 316 315 317 319 319 317 319 322 321 320 321 322 321 322 323 323 322 322 323 323 325 326 323 325 328 326 325 327 326 325 326 324 327 331 326 321 328 336 331 323 322 320 316 316 316 316 317 316 313 312 311 309 307 306
315 314 312 313 314 315 315 316 315 315 315 314 314 315 318 320 319 318 320 326 327 325 323 321 322 322 320 318 317 318 321 320 319 318 316 315 316 318 320 319 320 321 321 320 321 322 322 321 322 325 326 326 325 323 327 327 322 324 329 329 327 325 325 326 326 326 331 335 327 320 329 335 329 325 327 324 319 318 316 315 315 314 313 311 310 308 307 306
315 314 313 313 314 315 316 316 316 315 315 315 315 314 316 318 317 317 320 326 326 324 325 324 321 321 321 318 316 319 324 322 318 316 315 316 316 317 321 321 320 321 320 321 324 324 323 323 324 326 327 328 325 324 327 325 324 329 329 331 332 326 325 327 326 328 332 333 325 321 326 328 325 325 326 325 323 320 316 315 313 311 311 310 309 308 307 306
316 315 313 313 315 316 316 316 315 315 315 317 317 314 315 317 317 319 323 325 324 324 327 324 319 318 320 317 317 321 321 320 321 317 313 314 316 317 321 321 321 322 321 323 327 325 323 324 327 326 325 326 325 327 330 324 325 330 327 329 333 329 329 329 327 329 329 329 326 323 325 327 327 326 322 321 324 322 317 314 313 311 309 309 308 307 306 305
316 315 313 312 315 317 317 316 315 315 316 318 317 315 317 317 317 323 326 322 323 326 324 322 320 319 320 319 319 321 319 318 322 318 314 314 315 316 319 320 320 321 321 322 325 326 325 324 324 326 325 326 327 329 331 326 323 327 326 329 334 332 332 331 329 329 328 328 328 326 326 327 329 329 323 319 321 323 319 315 312 311 309 308 307 306 305 304
316 315 312 313 316 317 317 317 316 316 316 317 317 316 318 319 320 326 326 321 325 328 319 319 322 321 321 321 321 321 320 319 317 316 316 316 316 316 317 319 320 323 324 325 326 324 321 317 318 324 324 324 327 323 323 326 323 324 328 331 334 333 333 333 330 327 327 328 328 327 326 326 329 329 324 322 323 322 319 317 315 312 310 309 307 306 305 303
317 315 313 313 316 318 317 317 317 317 316 317 319 318 319 323 326 327 325 319 320 324 319 319 322 322 322 323 324 322 320 319 316 317 319 318 317 318 319 321 323 325 326 326 327 324 320 319 321 322 320 323 326 321 321 325 323 325 332 332 332 332 332 331 326 324 327 329 328 327 325 324 327 329 324 322 321 319 319 319 318 315 311 308 307 306 304 303
317 316 314 314 316 317 317 317 317 317 317 318 319 318 320 326 328 326 322 316 317 324 323 323 323 323 322 324 326 323 321 320 317 318 321 319 320 319 319 323 324 326 329 327 327 325 323 324 324 321 318 321 328 325 324 326 323 325 330 330 329 329 330 330 326 324 327 327 324 324 324 324 325 325 323 322 320 320 322 321 318 315 311 308 307 305 304 302
317 316 315 315 316 317 317 317 317 317 318 319 318 320 323 326 327 325 321 317 321 326 324 324 323 323 324 326 326 322 321 322 318 319 321 319 320 320 320 323 323 327 333 328 325 326 327 326 323 321 320 322 325 324 324 326 324 324 326 329 330 328 329 330 328 327 328 327 323 320 323 325 325 325 322 321 320 320 320 320 320 315 310 308 306 304 303 302
318 317 317 316 316 317 317 317 317 317 318 318 319 322 325 325 323 323 322 319 322 325 323 324 324 322 324 326 326 323 323 323 318 319 322 320 321 322 321 322 321 325 332 328 324 326 330 331 326 322 322 323 322 322 325 327 323 322 323 327 328 330 333 332 329 329 330 328 322 318 323 328 329 326 320 317 316 316 315 315 316 314 309 307 305 303 303 302
318 317 317 317 317 317 317 317 317 317 317 318 321 323 325 324 321 321 321 320 322 324 323 323 324 324 325 326 325 323 325 326 319 319 323 321 322 323 322 321 319 323 329 328 326 324 326 332 328 321 321 322 321 321 324 325 323 322 324 327 326 329 333 330 327 325 324 325 321 319 325 329 325 322 318 313 313 314 313 311 312 312 308 305 304 303 302 301
319 317 317 318 317 317 317 317 317 317 317 319 322 324 324 323 322 323 322 319 323 325 324 324 324 326 326 325 324 323 325 327 322 321 323 321 322 322 321 321 318 320 324 325 327 327 327 330 324 317 319 320 320 322 322 324 325 323 323 324 323 326 327 328 327 322 319 325 325 321 324 324 321 320 317 313 312 313 312 310 310 309 306 305 304 302 302 301
318 318 318 317 317 317 317 317 317 316 317 320 323 324 323 323 324 326 325 321 322 324 325 325 325 327 326 326 325 324 325 326 322 322 324 322 323 323 321 321 320 319 320 322 327 330 329 329 322 318 321 318 316 321 322 322 324 323 324 324 322 325 327 328 330 326 324 328 327 323 324 324 322 322 317 312 314 314 311 310 309 306 305 305 304 302 302 301
318 317 318 318 317 317 317 316 316 316 318 321 323 323 323 323 323 325 325 323 323 324 324 324 324 326 326 326 326 324 324 326 322 322 325 323 324 325 321 322 322 318 319 321 325 328 328 329 322 317 320 317 314 320 323 320 319 323 326 323 324 329 328 327 329 328 328 329 328 326 324 322 322 323 320 317 317 317 313 311 310 307 305 305 303 302 302 301
318 318 319 318 317 317 317 316 316 317 319 321 323 323 322 322 321 324 327 324 322 324 324 324 324 325 326 326 325 324 323 325 322 322 325 323 324 325 321 322 324 319 318 320 323 329 331 331 325 317 316 318 316 319 324 322 318 320 321 318 322 328 326 326 327 327 329 329 329 329 326 325 323 321 322 321 318 316 313 311 310 307 305 304 303 302 301 301
318 319 320 319 318 318 317 316 316 318 320 320 321 322 321 321 320 324 328 325 323 324 323 323 324 324 326 325 325 324 322 323 321 321 325 324 323 325 322 321 324 321 319 319 322 328 329 328 326 319 314 318 320 320 322 322 319 319 320 320 321 322 322 325 325 326 329 328 329 328 326 328 327 320 319 319 316 313 313 312 310 306 305 304 303 302 301 301
317 320 320 318 318 317 316 316 318 320 319 318 319 319 319 320 321 323 324 324 325 325 323 324 324 323 325 325 324 324 322 323 322 322 325 323 323 327 323 321 324 323 322 323 324 327 327 326 327 321 316 319 323 320 318 320 320 319 320 320 321 320 322 325 324 323 324 326 329 328 327 328 322 316 317 318 316 312 311 312 310 307 306 304 303 303 301 301
318 321 320 318 317 317 316 318 319 319 318 316 316 317 318 319 320 321 322 323 325 324 322 326 327 324 324 325 324 323 323 324 323 323 324 322 323 327 323 321 326 325 323 325 325 324 324 325 327 323 319 319 320 318 317 320 319 318 320 321 321 321 322 324 326 325 322 324 325 325 327 324 314 312 317 318 317 314 310 310 310 308 306 305 304 303 302 301
316 318 318 317 317 317 317 319 320 319 317 315 314 317 319 319 319 320 321 322 324 324 322 325 327 325 325 327 325 322 322 323 322 323 324 323 323 323 320 321 326 324 323 325 324 322 322 324 326 324 321 318 316 316 317 317 316 318 321 321 320 320 320 323 326 326 324 324 323 323 326 322 313 313 317 315 315 315 311 310 310 309 306 305 304 303 302 301
313 315 316 316 316 317 319 321 320 318 316 315 315 316 318 319 319 321 322 321 323 324 323 323 324 325 327 328 325 321 321 324 322 321 323 324 321 317 317 320 322 323 323 325 324 322 323 326 326 326 325 322 319 319 318 316 316 319 321 320 318 319 320 320 322 323 323 323 324 324 325 323 317 316 317 316 315 315 312 310 310 309 307 306 305 303 302 302
310 312 315 315 313 315 320 321 319 316 315 314 315 315 317 318 319 320 322 321 322 323 323 324 324 325 325 325 323 321 320 324 326 322 320 322 320 316 315 317 320 323 323 324 325 323 323 325 325 326 329 328 326 324 322 320 317 316 319 320 318 319 320 320 320 322 323 322 323 323 323 323 320 316 314 314 314 314 313 310 309 309 307 306 305 304 302 302
310 310 312 314 313 314 317 318 318 317 314 314 315 315 316 317 318 319 321 322 322 322 323 325 324 324 325 325 324 323 320 322 327 324 320 322 321 315 311 311 316 321 321 321 324 323 323 324 324 325 327 327 327 323 320 321 320 317 318 319 318 318 319 319 321 322 323 323 322 321 321 323 322 316 314 314 314 313 313 312 311 309 307 306 305 304 302 302
312 310 310 313 314 315 314 315 318 318 315 315 315 315 315 316 318 319 320 321 322 322 322 323 323 323 325 324 324 325 322 321 323 323 321 320 317 311 308 309 312 316 316 317 320 322 324 323 322 324 324 324 326 322 317 318 320 319 319 318 317 317 318 319 320 321 323 324 323 322 321 322 321 318 317 317 315 313 312 312 311 309 307 307 306 304 303 303
313 312 311 312 314 314 313 314 317 318 317 316 316 316 316 316 318 319 319 320 321 322 321 321 322 323 324 324 324 325 323 322 322 322 320 318 315 312 311 311 311 311 313 315 315 319 323 322 320 322 322 321 322 321 318 318 318 319 318 317 317 317 317 318 319 319 321 322 322 323 324 323 320 318 317 316 314 311 310 309 308 308 307 307 306 305 304 303
312 312 312 312 312 313 313 313 315 317 317 317 315 315 315 316 317 318 318 319 320 321 321 322 321 322 323 323 324 323 323 323 323 321 319 318 316 315 314 314 312 310 311 314 314 316 321 321 319 320 321 320 320 319 318 317 317 318 317 317 316 316 316 317 318 318 319 320 320 321 323 323 320 318 316 314 312 310 308 307 308 308 308 307 306 305 304 303
311 311 312 312 312 313 314 314 314 314 315 316 315 314 313 315 316 317 317 319 320 319 320 322 321 320 321 322 323 323 322 323 323 321 319 318 316 315 316 317 313 309 309 312 313 314 317 319 318 318 320 319 318 318 318 317 317 318 318 317 315 314 314 315 316 317 318 318 318 319 321 320 319 317 316 312 311 309 307 307 308 308 308 308 307 306 305 304
306 305 308 312 313 312 313 314 314 314 313 314 315 314 313 314 315 316 317 317 318 319 319 321 321 319 319 320 321 322 321 321 322 320 318 318 318 317 317 316 313 310 310 311 313 314 315 316 316 317 320 320 318 319 318 317 316 317 317 316 315 314 315 315 315 316 317 317 318 318 319 319 318 317 314 311 310 310 309 309 310 309 308 309 310 309 307 306
304 302 305 310 313 313 313 313 314 314 314 313 314 314 314 314 314 315 317 316 317 318 318 319 320 318 318 319 320 321 321 320 320 318 317 319 319 318 318 316 314 313 311 310 312 313 314 314 314 316 319 318 316 317 317 316 317 318 319 318 316 315 315 316 315 315 315 316 318 318 317 319 320 318 314 312 313 314 313 314 314 312 311 313 316 315 312 311
Wind_Speed
3 3 2 1 1 2 3 3 3 2 3 3 4 4 4 4 4 4 4 4 4 4 4 4 4 5 6 6 8 9 10 11 9 5 2 3 5 4 3 2 1 1 2 2 5 7 8 6 3 3 3 3 2 1 3 2 2 5 3 4 2 0 1 1 1 3 4 4 4 1 3 6 3 1 1 2 6 6 5 6 4 7 7 7 10 11 10 9
3 3 3 2 2 2 3 3 3 3 3 3 3 4 4 4 4 4 3 4 4 4 3 4 4 5 6 6 8 9 11 11 6 3 2 4 4 1 5 3 2 2 2 3 7 9 7 5 6 6 5 1 2 2 2 2 2 4 3 4 1 3 1 1 3 2 3 6 5 2 4 6 5 2 1 1 1 4 6 4 4 6 7 7 10 13 12 13
4 3 4 3 3 2 2 3 3 3 2 2 3 3 4 4 4 4 3 3 3 3 3 4 4 5 5 6 8 10 11 8 3 2 3 3 4 6 6 5 4 3 3 4 5 7 6 6 8 6 4 1 2 1 2 2 2 2 4 4 3 4 2 2 4 4 2 6 7 3 3 4 3 3 3 2 1 4 5 2 3 4 4 4 6 12 14 15
4 4 3 3 3 3 2 2 2 3 3 3 3 3 4 3 3 3 3 3 3 3 3 4 4 5 5 7 7 10 9 5 2 1 3 8 9 9 7 6 5 4 4 5 4 5 6 8 7 3 3 2 3 2 3 1 1 1 3 4 5 3 3 2 4 5 4 5 7 4 2 2 2 2 3 4 2 1 3 3 4 6 7 6 5 9 13 15
4 4 3 3 3 3 3 3 3 3 4 4 3 3 3 3 2 3 3 3 3 3 3 4 4 5 5 6 7 9 7 4 2 4 7 9 10 10 8 7 6 5 5 5 5 5 7 7 4 4 3 1 3 4 1 2 2 3 1 4 4 4 4 2 3 4 3 5 5 4 2 1 1 0 3 6 4 4 4 3 5 7 7 7 7 9 11 12
5 4 3 3 3 3 3 4 4 4 5 4 3 4 3 3 3 3 3 3 3 3 4 4 4 5 5 5 7 7 2 2 4 8 9 10 11 10 8 7 6 4 4 5 7 6 6 4 4 3 1 1 1 2 1 3 4 3 2 1 2 4 5 3 2 2 3 5 2 2 2 1 2 2 3 6 4 4 4 5 7 7 8 10 10 9 8 9
6 5 4 4 3 3 3 4 5 5 5 4 4 4 4 4 3 4 3 3 3 3 3 4 4 4 4 5 6 3 3 1 6 10 9 9 10 8 7 5 5 4 4 7 9 6 4 6 4 0 2 3 1 3 0 2 4 5 0 2 3 3 5 4 3 2 4 4 3 2 2 1 3 2 0 4 3 4 6 7 9 9 11 12 10 8 7 8
7 6 6 5 4 5 5 5 5 4 5 5 4 4 4 5 5 4 3 3 3 3 4 4 4 4 5 4 2 2 1 2 7 11 9 9 9 7 6 3 4 4 5 7 7 4 4 5 3 1 3 1 1 1 1 4 5 4 1 2 2 1 3 5 5 4 2 3 3 2 1 4 5 3 1 4 5 5 7 8 9 9 10 10 7 7 7 9
7 7 6 6 5 4 3 3 3 3 5 5 5 5 5 6 5 4 3 3 3 3 3 3 3 3 5 5 2 2 2 3 9 11 8 8 7 6 4 2 3 3 4 4 4 5 2 2 2 2 2 1 1 1 1 4 2 1 2 1 2 3 2 5 5 5 5 3 2 1 4 7 4 3 2 4 8 6 7 7 7 8 8 7 6 6 8 8
9 8 7 5 3 2 1 2 3 3 4 5 6 6 6 6 5 4 3 3 3 2 2 2 3 2 3 3 4 2 2 4 9 9 7 7 6 5 4 2 3 2 3 2 2 4 2 1 1 1 3 0 1 1 2 3 2 2 2 3 2 5 5 4 6 7 5 3 5 5 5 6 3 3 3 3 8 7 8 7 6 8 7 6 5 6 9 9
10 9 9 6 3 3 3 3 3 3 4 6 7 7 7 6 5 4 3 3 3 2 2 2 2 2 2 3 4 2 4 5 8 8 7 7 7 6 5 3 3 2 1 2 1 3 3 2 3 1 1 1 1 2 2 1 2 2 3 4 6 6 6 4 6 6 5 3 6 8 4 4 2 2 5 6 8 7 9 8 6 7 6 6 6 5 8 10
11 11 10 9 7 5 3 4 3 4 6 6 7 8 7 6 5 4 4 3 3 2 2 1 1 2 2 2 2 5 5 7 8 8 8 7 7 7 4 4 3 3 1 3 2 2 2 3 5 4 0 1 1 2 0 2 2 2 3 2 7 6 6 7 7 7 6 3 6 7 2 4 3 5 4 8 9 7 8 8 7 7 6 6 6 5 6 9
12 12 11 10 10 7 4 5 5 5 6 7 8 8 8 7 5 5 4 3 3 3 3 2 1 1 1 0 3 7 8 8 8 8 8 7 6 6 4 4 3 3 1 2 2 1 1 2 4 4 1 2 1 0 1 0 3 1 1 2 3 6 5 8 5 7 7 3 6 7 2 6 7 6 4 8 9 8 8 7 6 6 5 6 5 5 5 8
13 13 12 11 11 8 6 7 8 8 8 8 8 8 9 7 5 4 4 3 4 4 3 3 2 1 2 2 3 6 9 8 8 8 8 7 6 6 5 4 3 2 1 1 1 1 0 1 3 3 1 2 2 0 2 2 2 0 1 1 1 1 5 7 1 8 7 2 5 8 2 6 7 4 6 7 8 9 8 7 6 6 6 5 5 5 4 6
15 14 12 11 10 9 8 9 10 10 8 7 8 8 7 5 3 3 3 4 4 4 4 3 4 2 2 3 3 5 8 7 8 8 8 8 7 6 4 4 2 1 2 2 2 1 1 1 3 3 1 1 3 3 3 3 2 1 1 3 2 2 5 7 1 8 7 1 4 7 2 6 7 5 7 6 7 8 8 7 7 7 7 6 5 5 5 5
16 14 13 11 11 10 9 9 9 8 6 6 7 6 4 3 3 4 4 4 5 4 3 1 3 3 1 2 2 4 6 6 7 9 10 9 7 6 6 5 3 3 2 1 2 3 3 3 2 2 1 2 4 4 3 4 4 2 2 3 3 2 3 5 3 4 6 4 2 4 3 4 5 5 7 6 8 7 7 8 8 8 7 7 6 5 5 5
15 14 14 13 12 11 9 8 6 6 7 6 5 3 4 4 3 4 4 4 5 4 2 0 0 2 0 1 2 3 5 6 9 12 11 9 7 8 9 6 4 4 4 3 3 2 2 2 1 0 2 2 2 5 4 2 4 4 1 3 4 3 2 2 4 5 4 6 4 5 4 5 5 5 8 8 9 8 8 9 9 8 7 7 6 6 6 6
15 14 14 14 14 12 9 8 6 7 7 5 2 3 5 5 4 4 4 5 4 2 2 3 1 0 3 3 3 3 5 9 11 12 13 10 9 10 7 4 4 5 4 3 2 1 2 2 2 1 2 1 2 5 3 4 4 3 3 2 3 3 3 4 4 3 5 5 5 4 5 10 8 5 7 8 8 9 9 9 8 8 8 7 7 7 7 6
16 15 14 13 14 13 9 9 8 8 7 2 5 6 7 5 3 2 3 4 3 2 1 4 4 2 2 4 4 4 7 10 10 9 11 11 10 9 5 4 6 5 4 1 1 1 2 3 3 2 2 3 5 6 7 7 7 6 5 4 4 3 4 4 4 4 7 5 5 7 7 10 9 7 8 8 8 9 8 6 6 7 7 7 7 6 7 7
18 17 15 13 14 13 9 9 9 8 6 4 7 6 4 3 2 1 2 2 5 5 1 5 8 3 1 2 6 9 9 8 5 4 9 11 11 8 3 3 4 3 2 4 2 1 4 3 2 4 7 7 7 9 9 8 6 5 4 3 4 4 5 4 3 5 5 4 6 9 9 9 8 8 10 9 7 8 8 7 7 8 7 8 8 7 7 7
20 19 17 15 15 13 11 10 9 8 7 7 6 2 2 3 3 2 3 4 10 12 7 5 9 5 1 6 12 14 8 3 1 3 11 12 11 9 2 2 4 1 3 5 2 0 3 4 7 8 9 7 7 9 9 8 7 6 5 5 5 4 6 5 3 4 2 2 6 6 7 9 8 8 8 7 7 10 12 11 11 11 9 7 8 8 7 6
22 19 19 18 16 14 13 11 10 7 7 9 5 4 3 0 2 2 2 2 9 15 13 8 7 7 2 6 16 15 6 2 1 3 10 10 7 6 2 3 5 4 3 3 3 1 2 5 9 10 7 5 6 7 7 7 7 7 6 4 5 4 4 4 2 1 0 2 4 5 6 8 9 8 7 8 11 12 14 15 13 13 11 9 10 9 8 7
23 21 20 20 17 16 13 12 12 7 10 12 8 6 2 2 1 1 2 1 5 8 9 8 7 7 4 3 12 13 4 4 5 5 12 11 4 5 5 5 6 4 3 5 5 4 4 6 10 10 6 6 8 7 6 6 5 6 5 4 5 4 3 3 4 2 2 1 2 5 6 6 7 8 7 11 11 7 7 8 7 9 11 11 11 10 10 10
24 22 22 21 19 18 15 13 12 10 13 15 15 13 6 2 1 1 1 1 4 5 6 11 9 6 9 6 12 13 4 5 6 6 15 13 5 3 5 6 7 5 4 8 9 8 7 6 6 8 8 8 7 7 7 6 4 4 5 6 4 4 5 5 3 1 3 4 2 3 6 6 6 9 11 7 4 1 1 3 5 6 8 8 8 9 10 11
26 24 23 23 19 17 17 14 13 14 13 13 19 19 11 4 1 1 1 1 4 4 3 9 6 5 11 10 13 12 2 5 4 7 18 16 9 5 3 4 4 6 8 9 9 8 9 6 2 6 7 8 7 7 7 7 5 5 4 7 7 6 6 5 0 3 3 5 3 1 3 7 4 7 11 3 3 4 2 5 8 7 6 8 8 9 9 9
27 26 24 25 21 19 17 11 13 16 12 12 19 18 13 7 2 1 1 3 4 3 2 5 5 7 11 9 10 6 1 5 3 10 21 19 12 5 3 4 2 5 8 6 5 4 5 7 6 7 7 8 8 7 6 7 6 4 5 6 8 8 7 7 4 1 2 4 3 2 2 7 5 4 8 4 5 8 6 7 9 6 6 8 9 8 9 9
28 28 27 27 25 25 17 7 13 16 9 11 16 17 15 11 6 3 2 3 5 3 5 2 2 6 9 10 12 7 2 4 3 6 13 13 9 1 3 6 3 4 5 3 4 3 4 9 9 8 7 7 7 6 6 8 6 4 5 5 7 8 8 8 6 3 4 3 3 1 3 6 8 6 7 7 7 9 10 11 9 7 8 8 8 9 10 10
31 28 28 30 29 31 20 8 15 18 10 6 8 17 18 12 9 2 4 0 4 3 4 1 0 3 4 8 11 7 2 2 5 2 1 3 4 1 3 8 6 7 5 5 6 4 3 8 9 9 8 6 6 5 6 9 6 6 5 5 6 6 5 4 3 2 1 3 3 2 4 3 9 5 2 4 7 10 13 14 13 12 12 10 9 9 9 9
32 29 30 33 30 32 25 12 14 18 16 7 7 19 19 12 8 3 4 3 2 2 2 1 2 2 5 7 6 4 2 2 2 2 2 2 1 2 3 6 5 6 5 6 7 2 1 5 7 8 7 6 4 2 4 8 6 4 3 5 6 4 4 5 4 3 3 2 4 5 5 3 9 3 3 1 5 10 12 13 13 13 12 11 10 10 9 8
33 29 31 33 30 33 31 20 15 15 15 9 9 20 19 9 5 4 2 4 0 1 1 2 2 3 8 9 2 1 3 2 1 1 2 1 2 4 0 1 4 4 2 3 4 2 1 1 1 3 4 5 5 3 1 4 6 5 6 6 7 5 5 4 2 4 2 6 6 9 9 6 6 3 5 5 5 7 9 8 8 9 11 12 11 10 9 8
35 31 33 35 34 36 28 18 19 18 14 13 14 20 15 3 3 4 6 2 1 1 2 1 2 5 11 12 6 4 4 2 1 3 3 1 1 2 1 1 3 2 2 4 4 3 3 1 1 1 2 4 6 4 3 2 3 6 5 5 4 4 4 4 4 3 2 8 5 10 11 9 8 6 3 6 5 4 7 8 8 11 13 12 10 9 9 9
36 34 37 39 36 35 27 18 22 22 15 17 18 14 7 2 1 7 6 2 0 5 5 4 4 6 11 11 8 8 6 3 3 6 5 3 4 5 4 5 4 2 3 5 3 3 2 3 3 1 1 3 6 4 4 6 3 5 5 6 3 1 2 2 2 2 5 7 4 8 8 7 9 9 7 10 10 7 6 7 8 12 13 11 10 10 9 9
39 37 39 41 37 36 31 21 24 24 17 19 15 4 3 5 7 10 9 4 2 3 4 5 6 9 11 9 5 6 5 3 5 6 4 4 5 6 3 3 5 3 2 4 4 2 3 5 2 2 3 3 8 6 3 1 2 5 6 6 5 3 1 3 3 3 4 5 4 4 5 3 5 5 8 12 11 7 5 6 7 10 12 12 12 11 10 10
43 41 41 43 41 39 32 24 27 27 21 17 9 3 6 8 10 13 14 10 3 2 3 5 7 8 8 6 4 6 4 3 7 7 4 5 5 5 4 6 8 3 3 3 3 5 4 6 5 8 3 5 10 9 6 5 5 5 5 6 5 5 4 4 4 4 4 4 4 1 3 4 2 2 6 7 7 5 5 4 2 6 8 9 10 10 10 10
44 45 43 41 40 41 36 28 29 31 24 13 6 7 10 10 11 13 12 9 4 2 3 6 8 7 5 3 2 7 5 2 6 6 5 6 5 6 6 7 10 5 4 4 1 4 6 7 6 6 3 9 11 7 6 7 3 3 2 4 4 6 5 3 3 4 2 2 3 2 4 4 4 5 5 2 4 5 5 3 6 8 8 9 9 9 10 10
45 43 40 38 37 41 41 34 33 34 22 9 6 10 12 11 10 7 7 8 6 5 7 6 5 5 6 3 3 7 4 3 6 5 3 5 3 5 5 5 11 11 8 7 3 3 4 5 4 1 2 6 8 4 5 4 4 2 2 5 4 3 5 3 3 1 2 4 4 4 5 4 3 7 4 2 2 3 4 2 5 7 9 10 9 10 10 10
42 37 31 35 39 41 41 39 40 36 17 6 10 11 10 11 7 4 4 6 8 10 9 5 5 6 6 5 4 8 4 2 6 6 3 4 3 6 8 5 10 16 14 8 3 3 5 3 3 2 1 3 1 4 2 1 4 5 4 6 2 2 1 2 2 2 1 5 4 4 7 5 2 5 2 3 1 3 3 3 4 6 9 10 10 10 10 10
35 27 21 33 45 44 43 43 41 30 10 4 12 13 10 11 9 6 5 6 9 11 10 8 7 7 7 7 6 8 7 4 7 6 4 4 4 7 11 6 8 16 16 9 3 3 3 3 3 1 2 2 2 4 2 3 2 5 4 5 4 1 1 3 2 3 3 5 4 3 6 6 7 6 1 2 8 8 7 6 7 9 11 10 10 10 10 10
27 14 9 27 45 45 47 47 35 18 7 7 12 12 11 11 9 6 5 7 9 9 10 10 8 6 7 8 7 8 9 7 8 7 4 5 4 5 11 8 6 14 17 12 7 2 2 3 3 1 1 1 2 2 4 3 1 3 1 2 2 2 3 4 3 2 2 3 4 2 3 4 7 7 7 10 13 12 11 10 10 12 13 11 10 11 10 11
13 4 3 22 43 48 51 42 20 9 8 10 11 10 8 7 6 5 5 6 6 5 8 11 10 7 7 8 8 8 7 6 9 7 4 6 4 4 8 8 7 10 14 14 9 2 2 3 3 1 2 1 2 3 7 9 6 3 3 4 3 1 2 1 2 2 4 3 3 3 5 6 4 3 9 13 13 13 14 14 13 12 12 11 11 11 11 11
4 3 2 22 44 50 43 24 8 7 9 8 10 10 8 5 4 6 7 3 1 1 3 6 9 9 7 7 7 7 7 6 7 6 4 6 5 3 5 7 8 9 9 9 8 4 3 3 3 2 1 3 5 5 4 6 7 6 6 7 8 6 4 2 4 3 3 3 4 3 7 8 3 0 4 8 9 10 14 14 12 11 12 11 10 11 11 11
2 4 2 25 50 46 26 9 5 7 7 9 13 11 5 3 4 7 8 4 2 2 0 1 6 9 8 7 6 7 7 6 7 7 5 7 8 6 3 2 7 11 9 6 5 3 3 3 3 2 3 5 5 4 1 3 4 3 3 6 7 7 7 6 6 4 2 3 2 2 5 7 2 1 3 4 6 8 10 11 9 9 10 10 9 9 10 10
3 4 3 22 52 44 15 7 10 7 6 10 11 9 5 5 8 8 8 9 6 3 3 2 3 7 7 5 5 8 8 6 8 10 6 6 7 5 3 2 6 12 9 4 3 3 4 3 3 2 1 1 3 4 4 4 3 1 4 4 5 6 6 5 4 3 2 4 3 2 5 5 2 3 3 4 5 4 8 9 8 7 7 9 10 10 10 9
4 3 5 13 39 37 13 8 11 9 9 9 9 11 9 6 9 11 12 14 10 5 5 5 3 4 5 4 5 9 11 7 9 10 6 5 5 1 2 2 5 9 6 3 5 5 4 3 4 3 1 1 1 1 2 2 1 4 4 4 6 7 6 3 0 2 3 5 7 4 9 6 2 4 3 5 5 1 4 7 8 8 7 8 8 8 9 9
2 2 2 7 17 18 8 7 10 10 10 11 11 15 13 6 7 11 12 13 11 8 6 5 5 4 3 3 3 6 11 8 5 7 4 3 3 2 3 3 0 4 3 3 8 7 5 4 5 6 7 7 5 4 4 3 3 3 3 6 9 11 12 7 2 4 7 4 9 9 11 5 3 4 5 5 4 4 1 4 6 7 8 9 8 8 9 9
3 2 2 3 5 4 2 2 8 10 11 12 10 12 15 12 8 8 8 9 11 11 6 2 5 5 3 5 5 5 9 4 3 4 6 5 2 2 2 3 3 2 3 7 10 7 3 3 7 10 10 9 6 3 4 6 6 5 7 10 11 12 14 10 5 8 6 3 6 12 9 8 8 4 3 5 2 1 1 4 6 6 7 8 8 9 9 9
4 3 3 2 2 2 2 2 5 9 11 12 8 8 16 17 9 5 7 7 7 11 7 1 4 8 7 9 8 6 8 4 2 4 7 6 2 2 2 3 4 1 2 6 6 5 4 4 9 10 11 10 5 4 4 6 7 9 10 12 13 12 13 13 12 11 6 4 11 9 6 12 14 6 6 8 5 5 6 6 7 7 7 7 7 8 9 8
3 4 5 3 1 2 2 2 3 7 12 13 7 6 14 18 13 8 8 7 5 9 7 1 6 14 15 14 12 7 7 7 5 6 5 4 4 2 3 3 3 3 1 2 1 3 5 5 6 8 13 15 6 4 4 5 4 6 9 12 14 15 16 17 19 15 9 8 16 8 10 16 14 7 10 10 8 8 7 5 4 5 6 7 8 9 9 9
2 0 2 3 3 5 5 3 2 4 10 12 8 6 11 16 17 12 6 6 6 9 10 9 12 16 15 14 12 9 9 10 9 9 7 6 6 4 2 0 2 2 1 2 1 1 3 4 4 8 13 16 9 6 5 5 4 5 8 12 13 15 17 18 19 19 13 14 19 10 7 13 10 6 8 7 5 5 4 4 4 6 7 8 8 8 8 9
2 1 1 3 3 5 6 5 3 4 6 8 8 9 10 14 19 13 7 9 11 10 12 15 17 15 14 13 11 11 13 15 14 11 11 10 7 6 5 4 3 2 2 3 2 1 3 3 4 7 8 11 8 7 6 7 7 9 13 14 9 7 10 13 16 15 12 16 19 12 9 11 6 3 2 3 5 6 7 6 5 6 7 8 8 8 8 9
2 1 1 3 4 6 6 5 5 5 4 5 6 7 9 14 18 14 8 10 13 12 13 20 20 13 10 11 12 16 18 15 11 9 12 13 10 8 6 5 7 7 5 4 4 3 4 2 2 5 5 6 5 8 9 6 4 11 21 18 9 7 8 13 14 13 13 16 16 13 13 12 5 5 4 5 7 8 8 8 6 5 6 8 8 8 8 8
2 1 1 1 4 7 7 6 7 7 5 6 7 7 9 12 12 11 7 6 11 12 12 18 17 9 7 13 18 19 13 7 5 5 7 6 4 4 4 5 10 10 8 6 3 3 5 4 2 4 5 2 3 7 8 5 1 10 16 13 14 15 17 15 13 14 15 14 12 12 14 10 5 7 6 5 7 9 9 8 7 7 7 8 8 8 7 8
Wind_Direction
199 205 223 244 249 236 223 220 221 228 232 224 211 206 207 207 210 212 219 217 220 236 247 270 288 300 308 313 315 315 319 327 332 346 349 268 286 276 204 199 227 76 56 29 8 2 352 349 285 311 5 332 19 30 353 10 48 54 76 82 73 117 67 253 176 174 156 142 179 185 86 124 157 301 336 18 54 85 68 57 55 53 70 91 104 102 88 90
207 211 212 215 231 243 240 231 221 227 234 231 217 216 214 207 210 210 214 217 224 239 254 281 295 302 307 315 315 315 323 333 350 29 3 296 298 226 174 170 145 117 64 28 15 11 4 348 319 352 35 354 333 24 10 347 57 73 104 84 149 190 57 238 138 119 127 145 164 123 86 112 157 187 85 8 35 99 95 62 75 77 72 83 93 95 90 87
214 222 215 212 217 224 247 245 236 232 232 228 220 220 217 207 209 213 218 224 232 244 269 284 293 302 306 314 315 319 327 346 42 36 17 49 81 112 135 136 130 114 58 49 25 4 350 318 316 347 47 359 297 51 44 358 42 87 102 78 240 201 74 27 94 87 104 139 135 111 84 96 174 177 109 173 102 92 134 153 133 127 122 112 92 92 91 83
218 225 219 216 211 207 223 242 251 241 230 226 223 223 218 211 213 222 228 238 247 258 273 278 291 298 304 313 315 320 334 21 67 289 89 94 97 107 115 115 106 84 55 45 24 352 334 312 310 353 62 347 314 45 55 336 45 66 104 142 220 165 87 9 84 84 71 105 125 137 89 61 224 171 116 149 113 42 200 207 171 153 149 142 113 93 92 86
215 223 218 219 212 212 219 223 238 245 239 231 233 238 233 228 234 238 236 250 259 261 271 280 292 297 301 306 310 319 348 50 215 191 126 113 109 110 109 100 87 70 59 37 5 341 323 311 336 41 61 355 336 34 15 278 96 63 47 166 185 106 114 236 99 87 72 72 87 108 102 209 211 117 136 143 164 221 202 176 143 134 142 141 124 104 93 89
212 213 213 226 224 221 228 228 228 235 238 236 246 252 255 256 257 260 251 259 266 267 279 286 292 295 300 301 306 312 21 82 213 171 143 134 124 118 113 99 79 51 48 26 354 347 337 343 22 28 54 54 53 96 248 291 84 92 319 45 45 86 139 193 118 94 88 84 90 139 170 156 93 303 205 145 176 192 152 140 128 121 127 120 111 104 95 96
215 208 211 222 227 225 228 233 232 238 238 234 250 255 258 260 258 264 265 272 276 286 292 293 299 296 300 307 312 325 115 186 199 168 158 148 138 130 120 101 71 46 37 19 5 7 7 17 17 308 71 39 82 126 208 337 65 99 337 350 13 79 136 157 153 142 105 129 200 141 103 151 140 246 238 119 160 144 128 128 127 122 114 108 102 100 99 101
220 209 212 216 223 229 230 236 237 248 248 238 249 257 258 256 252 260 278 286 287 303 294 292 301 304 322 321 321 16 31 221 178 169 167 152 149 142 130 111 75 55 40 18 6 9 8 20 10 55 65 26 109 95 6 21 29 73 103 297 343 25 149 152 149 151 145 193 224 84 146 231 190 190 222 159 165 143 135 132 128 119 104 102 104 104 100 93
228 217 215 217 225 231 239 260 255 257 262 251 250 256 257 255 254 263 284 287 285 290 283 287 291 306 334 333 66 43 317 198 165 169 168 155 156 154 151 130 104 71 34 1 343 8 15 41 12 65 107 226 85 45 41 58 3 164 125 327 348 318 233 155 157 177 191 219 208 189 255 260 231 188 244 180 166 156 138 137 132 116 104 103 105 108 106 91
232 231 228 230 238 235 231 270 264 268 272 259 251 252 254 253 252 262 278 276 266 264 262 271 283 310 334 349 64 68 246 161 163 171 168 163 165 167 176 167 141 117 24 332 335 30 78 159 335 144 143 277 21 38 80 102 181 179 97 5 312 281 277 180 186 200 194 221 196 186 236 270 268 192 234 191 166 158 136 144 140 118 121 121 108 107 106 97
231 234 236 244 253 239 228 244 257 265 262 258 255 251 253 254 251 258 265 257 242 228 229 255 281 308 334 54 90 182 206 168 169 169 170 173 174 183 187 190 180 169 23 11 45 55 75 4 3 76 118 50 58 52 41 132 153 112 72 351 300 287 294 229 211 215 180 225 193 168 226 291 356 241 223 176 164 160 143 151 146 127 134 129 119 112 105 101
230 231 235 240 243 236 231 246 260 269 264 261 255 250 253 253 249 252 253 237 216 202 208 224 268 297 355 77 154 209 198 181 170 162 172 175 175 186 181 184 185 174 137 65 91 69 38 349 38 69 222 148 101 61 23 227 124 84 79 344 300 331 311 245 223 206 169 195 175 139 324 299 237 236 201 154 159 156 145 153 149 140 143 135 128 119 110 109
235 234 232 232 236 233 234 250 260 275 274 267 257 250 249 250 249 247 240 214 195 190 198 207 236 302 75 143 221 206 197 183 168 163 170 171 174 178 165 171 172 165 168 98 128 85 35 332 75 96 200 112 126 175 125 100 95 40 69 141 306 355 313 254 224 183 164 177 153 128 306 274 245 229 162 153 159 145 148 163 156 148 149 145 139 124 116 113
240 240 233 227 227 227 237 249 259 276 283 281 270 253 248 249 248 237 220 194 183 184 193 198 211 144 123 239 236 197 194 179 173 172 164 164 161 155 148 151 159 175 217 201 193 358 61 223 78 82 19 101 152 140 48 19 71 295 349 52 2 4 285 289 249 161 162 195 131 116 208 260 271 237 176 173 164 151 159 173 167 161 162 155 145 133 123 115
241 243 239 227 214 215 227 238 254 271 282 292 288 271 258 246 232 218 198 182 178 186 196 206 205 148 81 280 255 182 185 181 181 174 163 165 155 147 151 150 151 164 238 241 217 209 166 131 79 88 316 4 73 69 29 353 357 80 55 323 317 177 265 310 342 161 162 196 125 120 196 266 272 226 192 186 171 161 165 178 176 170 168 160 154 142 132 121
244 241 242 228 208 211 222 231 251 268 280 294 294 277 238 200 188 182 175 175 180 183 167 164 200 166 96 271 205 168 189 192 181 175 171 170 165 154 139 128 115 114 151 176 154 163 132 79 66 117 123 48 80 87 46 9 338 353 124 247 262 187 264 316 308 216 158 130 173 182 200 264 265 207 192 191 184 175 172 186 184 178 175 165 159 149 144 134
245 240 243 229 208 210 219 226 250 270 287 297 286 241 184 158 147 160 159 160 172 176 170 344 219 188 225 169 177 200 195 181 175 177 178 169 159 153 135 118 122 121 110 97 103 122 80 62 96 139 74 84 117 95 58 349 297 317 171 228 253 208 222 276 289 274 145 137 201 223 225 246 256 202 191 195 188 186 189 193 189 181 176 170 162 153 156 148
244 239 243 231 208 204 212 224 246 267 289 298 231 162 133 127 128 141 148 154 148 100 294 282 71 202 259 204 186 191 162 167 171 173 180 171 151 155 149 126 138 124 89 57 39 74 42 25 92 82 22 66 146 112 125 227 210 209 195 213 263 247 232 225 253 241 160 164 196 201 241 251 257 232 208 207 192 197 206 198 190 182 172 172 167 160 165 152
244 238 240 232 207 201 211 226 237 254 281 282 143 119 97 93 91 137 156 150 145 127 230 223 166 141 239 208 158 115 123 148 158 169 183 176 160 165 166 135 129 112 93 66 322 152 117 43 64 113 220 210 190 170 190 205 181 184 186 172 194 233 267 232 240 230 171 172 217 206 226 245 247 233 221 219 201 206 217 199 186 185 176 172 170 168 164 152
244 239 235 227 208 202 211 221 225 242 258 185 135 111 100 100 66 271 221 197 217 218 205 188 186 164 107 153 127 118 122 130 137 175 181 176 163 156 145 108 100 73 116 154 212 225 127 128 175 197 211 202 193 197 207 208 201 214 223 230 210 212 266 252 243 251 166 156 235 223 227 247 246 229 221 213 197 208 218 210 200 191 182 177 174 171 158 152
242 240 231 222 210 208 214 217 220 238 234 182 153 142 160 151 142 197 212 239 248 247 263 222 202 220 157 155 153 143 130 104 31 174 170 169 155 147 167 117 111 200 219 160 159 337 131 181 217 218 212 192 191 204 212 219 229 244 242 256 262 228 250 258 223 243 169 172 254 252 248 255 253 237 223 198 188 210 211 205 204 194 186 181 172 168 155 147
240 238 227 219 214 218 223 217 214 230 218 197 207 238 255 261 127 124 162 258 263 238 241 246 232 260 267 163 170 160 124 95 141 205 176 165 155 165 185 125 139 205 211 122 100 164 196 228 232 223 210 194 218 223 211 218 224 235 235 235 256 247 261 295 309 298 29 193 253 281 269 260 264 255 227 196 198 214 212 206 203 189 183 182 176 168 154 151
237 234 223 216 215 219 222 215 211 222 214 206 219 219 236 348 97 53 146 243 289 232 219 225 225 232 217 179 180 171 150 156 167 224 190 165 162 186 157 147 177 189 162 154 161 178 210 245 233 216 200 199 230 243 228 233 227 219 220 206 239 252 238 274 299 286 257 208 236 284 282 264 270 275 249 213 209 223 220 212 209 194 186 183 177 167 158 162
234 231 221 215 215 214 216 217 209 216 217 214 224 209 154 81 226 5 92 235 282 250 212 205 203 203 195 189 180 176 196 190 166 199 189 170 147 164 162 169 179 173 191 196 190 197 214 231 213 186 194 205 218 237 223 224 243 232 206 189 210 226 212 233 273 298 321 333 303 297 300 272 237 247 253 231 204 281 352 173 195 207 194 172 163 166 167 167
231 228 220 213 213 207 207 212 204 209 212 217 229 214 173 148 232 9 42 356 276 274 239 203 199 202 188 170 170 171 186 220 193 174 180 177 160 144 185 184 167 191 208 200 198 222 229 228 163 152 194 210 211 230 211 191 224 260 226 201 200 202 217 237 212 61 360 319 277 203 288 279 245 233 252 247 159 224 221 185 197 195 178 166 165 172 172 168
229 226 217 210 207 197 197 210 205 201 199 219 230 212 186 178 177 287 86 34 283 255 138 180 187 187 177 156 158 139 67 246 228 158 171 184 181 144 170 187 144 200 199 186 206 238 213 202 196 177 188 204 211 231 219 183 188 251 242 204 200 205 221 228 204 125 251 262 266 143 193 274 291 238 246 223 185 220 223 214 212 190 179 182 177 176 172 169
227 223 213 208 203 194 191 195 192 185 182 233 230 199 189 191 199 245 72 29 283 191 135 198 194 164 166 164 157 131 210 226 86 142 169 185 200 134 166 189 165 195 180 147 234 261 162 175 195 189 181 197 206 222 218 174 161 236 243 184 182 204 218 219 211 216 227 261 305 125 133 278 279 246 230 198 191 229 230 223 221 200 197 193 182 180 174 172
223 220 210 206 205 200 196 173 175 184 191 228 205 183 185 190 199 210 87 186 273 126 125 242 140 122 137 158 157 136 227 171 108 194 196 148 200 14 195 198 175 187 179 158 217 277 147 170 186 181 181 199 203 213 195 158 163 242 227 153 145 175 186 169 164 206 298 347 297 208 116 282 274 262 226 192 202 234 235 225 219 207 200 194 187 185 175 171
220 216 209 206 208 208 209 195 181 199 209 202 166 175 173 172 182 82 76 205 253 92 117 141 129 111 121 145 161 130 49 43 116 238 359 89 155 55 193 200 149 174 202 199 213 259 133 185 182 166 179 201 194 206 170 161 194 225 144 95 68 77 80 81 112 112 29 319 239 199 153 234 269 249 116 181 227 235 236 229 220 207 200 194 189 186 175 165
217 211 207 205 206 205 207 213 211 210 206 198 172 164 156 152 149 90 158 217 254 114 89 103 156 154 144 145 161 143 101 46 23 70 54 94 28 23 191 155 83 134 244 294 253 258 7 268 187 150 175 180 144 95 92 176 183 140 91 62 41 26 32 42 60 86 43 272 223 189 180 191 267 268 158 193 226 225 229 233 220 198 195 199 193 183 174 161
214 207 200 202 204 198 198 211 212 202 197 192 165 150 146 118 93 155 202 226 359 183 127 123 183 144 152 155 166 184 143 93 141 140 145 153 67 38 58 62 68 88 319 312 303 317 357 23 248 236 172 122 100 83 9 8 121 111 88 83 64 354 13 20 2 77 217 259 212 186 187 185 232 264 214 223 266 254 224 225 212 193 194 196 186 175 170 162
211 207 198 201 206 199 197 204 195 188 189 180 162 150 153 122 181 215 208 94 16 201 160 161 182 162 169 172 176 175 150 143 176 165 165 156 170 189 189 189 166 135 254 243 260 320 310 224 209 297 269 135 113 95 9 358 37 95 104 112 123 287 4 5 302 179 225 262 231 187 185 198 236 258 257 254 269 264 230 228 216 196 191 183 170 168 165 163
207 206 202 205 208 203 201 201 190 182 177 173 167 161 166 166 203 216 203 181 200 189 141 143 166 168 171 177 184 163 140 165 176 170 167 142 173 216 244 233 192 169 201 196 195 212 281 288 211 152 287 195 153 157 187 254 175 147 139 142 161 171 209 242 229 236 248 266 268 187 172 234 272 273 252 249 261 273 272 262 227 191 182 173 165 162 158 162
208 205 205 207 211 209 203 195 189 181 169 166 168 177 182 193 212 211 208 209 188 103 111 131 142 154 170 182 186 166 156 194 173 157 156 145 168 213 237 241 217 178 98 144 175 177 214 286 205 178 213 189 181 188 172 142 159 182 153 139 163 164 182 216 201 220 249 270 286 245 164 200 208 245 243 245 270 305 319 292 167 142 155 152 148 150 154 162
210 206 206 206 209 211 202 193 190 181 170 166 175 186 187 203 217 213 211 203 165 98 100 120 123 138 191 222 209 183 168 184 176 157 168 175 181 196 197 209 200 169 130 171 215 170 200 261 226 189 158 164 185 196 132 113 153 225 121 120 187 185 180 221 209 186 189 300 278 218 219 214 208 253 248 242 301 338 3 22 100 115 131 135 144 155 161 167
206 204 204 202 205 206 197 191 189 182 174 172 190 196 198 208 210 204 200 185 169 135 113 117 126 148 198 205 212 208 179 117 165 170 195 200 206 197 187 196 190 186 181 178 190 169 185 274 266 119 92 167 183 173 139 153 180 179 150 179 202 170 163 215 274 100 103 276 258 190 243 282 296 271 245 125 332 352 18 48 123 139 143 147 163 168 171 175
200 198 198 199 204 202 192 187 183 178 177 192 200 201 207 215 201 159 178 174 151 139 137 167 186 167 187 190 194 204 188 109 165 177 187 195 225 199 190 207 192 195 201 187 197 195 164 249 284 106 163 238 190 116 91 336 144 134 189 198 144 49 104 148 271 325 178 255 267 194 232 255 237 263 304 81 245 256 244 195 157 162 162 165 176 175 176 176
196 196 198 202 201 196 190 185 177 172 175 217 209 207 209 215 201 167 170 153 140 152 171 203 197 169 181 188 186 189 185 176 176 179 179 193 242 198 182 199 195 197 205 195 217 246 154 212 287 59 191 275 21 111 78 344 114 136 195 193 129 114 208 143 192 234 203 243 278 231 231 229 206 220 209 181 218 220 216 203 186 189 185 179 179 177 175 169
193 196 217 206 197 191 188 183 174 169 186 206 209 210 209 213 205 185 180 168 159 166 187 205 196 181 190 180 168 180 189 186 170 173 181 189 234 204 176 184 198 198 199 190 199 226 126 197 259 332 252 267 36 132 175 214 196 67 106 179 132 139 172 166 179 184 173 216 255 275 273 240 221 204 182 199 212 202 196 200 201 199 192 186 180 177 176 174
193 195 242 194 189 188 186 182 175 174 194 204 209 214 216 213 200 208 221 189 167 176 197 203 193 186 196 180 164 174 188 187 173 179 198 186 205 232 190 181 186 192 191 189 195 168 112 209 220 303 324 172 181 206 191 186 180 149 152 174 186 137 110 185 215 160 150 186 221 268 279 258 238 202 191 203 210 199 193 198 204 202 193 190 184 179 179 178
212 248 206 177 181 182 179 179 190 185 185 207 219 224 227 213 184 216 230 201 164 235 190 194 199 195 187 178 175 172 173 183 183 186 209 196 195 226 206 185 173 165 165 183 201 190 174 198 172 160 224 200 226 252 218 188 181 178 181 184 186 176 156 197 243 205 162 195 189 205 268 264 240 271 231 218 217 208 199 199 201 196 191 189 185 182 181 178
231 265 203 172 175 174 171 183 200 181 184 201 210 214 202 182 197 213 218 211 241 280 106 168 208 202 188 179 180 171 165 177 189 189 205 207 200 200 209 195 162 154 146 167 199 169 129 122 136 170 209 215 248 290 278 161 147 153 205 196 188 190 178 188 226 217 185 230 185 141 279 279 266 298 287 262 248 227 206 202 199 190 185 181 179 181 182 181
234 266 288 178 174 169 170 209 188 186 211 202 206 208 182 193 207 197 202 210 209 199 197 208 207 206 202 172 159 172 174 180 191 194 201 204 207 211 227 242 166 157 150 156 176 134 113 135 174 196 281 309 312 329 358 45 83 188 239 197 184 204 194 191 205 168 187 227 168 138 261 266 312 305 300 307 290 227 193 193 187 178 175 175 177 177 177 180
242 254 315 204 181 172 174 208 189 193 205 191 197 205 204 219 207 193 198 206 203 180 186 206 200 203 208 164 152 177 184 193 203 202 195 186 204 261 339 269 183 159 160 168 164 168 173 168 162 160 196 313 333 312 309 328 199 216 223 183 190 199 194 217 167 119 244 215 154 187 248 243 286 308 340 358 354 41 178 188 175 169 171 173 177 175 172 171
225 221 285 239 203 187 190 204 190 192 193 185 191 200 204 217 210 205 201 199 205 199 192 206 190 169 176 166 142 179 192 195 193 195 183 168 220 318 2 336 16 155 188 153 145 162 182 173 168 178 203 217 212 197 200 197 191 215 199 183 197 198 194 207 207 205 236 178 148 210 246 258 304 326 356 358 6 30 59 176 169 170 172 172 173 174 171 168
168 228 231 239 239 220 248 219 180 185 187 183 190 198 202 208 207 204 200 199 208 204 193 187 171 162 170 175 163 192 206 202 87 158 183 177 204 300 343 360 32 129 166 132 134 144 137 186 199 202 216 218 199 189 175 139 147 197 201 191 200 204 196 195 212 222 212 127 197 225 239 272 279 278 294 287 278 312 218 165 172 179 178 175 170 170 171 171
171 197 185 205 269 227 281 317 180 186 186 182 183 187 197 207 204 185 201 210 200 194 196 71 168 186 193 188 193 201 197 185 101 163 185 172 140 3 357 21 21 359 141 126 133 123 115 210 215 208 231 232 180 144 163 150 170 197 197 197 202 201 194 194 216 220 151 152 243 223 177 247 255 216 219 240 220 223 218 189 185 179 171 167 156 159 167 167
191 191 166 166 284 238 234 258 193 199 193 183 185 185 191 202 200 186 200 206 187 188 193 212 210 207 201 194 201 200 181 186 198 187 173 145 128 84 23 14 345 312 7 101 66 95 135 216 215 195 234 243 210 159 164 156 188 203 196 204 202 196 195 199 217 220 168 197 246 221 176 231 245 209 214 217 193 201 202 180 168 147 143 144 145 156 167 167
159 192 143 150 217 236 233 220 192 235 205 183 189 201 192 200 202 197 182 174 194 204 195 205 216 212 207 200 198 196 187 193 207 200 177 159 157 150 122 87 267 304 54 129 189 112 158 208 185 180 230 246 231 207 186 175 227 243 219 216 208 201 202 204 218 224 207 223 245 237 213 242 246 216 218 207 179 180 150 131 132 134 140 141 146 160 171 175
153 194 161 158 215 241 248 226 190 247 230 191 198 205 195 201 204 200 179 173 193 201 197 212 218 207 204 203 197 204 205 203 208 200 171 165 176 180 181 182 161 130 144 170 181 214 201 196 147 160 227 251 227 207 209 203 222 247 244 231 207 188 207 218 227 226 218 234 243 245 255 259 241 192 184 137 127 115 118 143 155 151 150 143 149 168 176 181
152 61 129 164 200 205 222 224 202 220 233 204 209 204 199 210 207 200 200 198 199 193 191 210 217 205 199 204 205 217 219 208 204 192 171 175 185 187 189 169 143 144 169 181 165 168 191 197 108 143 211 242 197 191 211 203 214 260 257 238 192 159 205 222 226 218 213 229 237 238 248 248 208 128 102 118 131 127 139 162 164 165 163 151 161 181 184 187
125 41 66 173 211 193 193 210 211 219 222 203 208 208 209 220 211 195 206 222 214 208 203 211 212 189 182 206 214 222 216 175 152 167 165 163 153 142 149 148 147 152 163 175 170 159 167 166 137 162 193 228 165 179 184 149 169 264 256 220 183 197 218 221 224 220 214 220 224 226 237 234 177 140 134 145 157 154 162 173 167 170 175 170 176 185 192 201